GFSNIL_con_lsi_057.txt.gz
Lid_Strength_Index
3 4 3 3 2 2 2 2 2 2 3 3 2 3 3 2 2 3 3 4 4 4
3 3 2 2 2 2 2 2 2 3 3 3 2 2 2 2 3 3 3 4 4 5
2 2 2 2 2 2 3 2 3 3 3 3 2 2 2 3 3 3 4 4 4 4
2 2 2 2 2 2 2 3 3 3 3 3 2 2 3 4 4 4 4 4 4 4
2 2 2 2 2 2 3 3 3 3 2 2 2 3 3 4 3 4 4 4 3 3
2 2 2 2 2 2 3 2 2 2 2 2 2 3 3 3 3 3 3 3 3 3
3 2 2 2 2 2 2 2 2 2 2 2 2 3 3 4 3 3 3 3 3 3
3 2 2 2 2 2 2 2 2 3 3 3 3 3 3 3 3 3 4 4 4 4
3 2 3 3 3 3 4 4 4 4 4 5 4 9 8 4 4 4 4 4 5 4
4 4 4 4 4 4 4 5 5 5 5 5 6 11 10 7 4 4 4 4 3 3
4 4 4 4 5 4 4 4 5 5 5 5 6 11 10 8 4 4 4 2 2 2
3 4 4 5 4 4 4 5 5 5 5 4 5 10 10 5 4 4 4 2 2 2
3 4 4 4 4 4 3 4 4 5 4 6 5 10 10 5 3 3 3 4 4 9
3 3 3 3 3 3 3 4 5 5 5 4 5 6 9 8 4 3 3 3 4 5

GFSNIL_con_lsi_060.txt.gz
Lid_Strength_Index
2 2 2 2 3 3 3 2 1 1 1 1 1 1 2 2 2 2 2 2 2 2
2 2 3 4 3 3 1 1 1 1 1 1 2 2 2 2 2 2 2 2 3 2
2 2 3 3 2 2 1 1 1 1 1 2 2 2 2 2 2 2 2 3 3 3
2 2 2 2 2 1 1 1 1 1 2 2 2 2 2 2 2 2 3 3 3 3
2 2 2 2 2 1 1 1 1 1 2 2 2 2 2 2 3 3 3 3 3 3
2 2 2 2 2 1 1 1 1 2 2 2 2 2 2 2 2 2 2 3 3 2
3 2 2 2 2 2 1 2 2 2 2 2 2 2 2 3 2 2 2 2 2 2
2 2 2 2 2 1 1 2 2 2 2 2 2 2 3 3 3 2 2 2 2 2
2 2 2 2 2 2 2 2 2 2 2 3 4 10 8 4 2 2 2 2 2 2
3 3 2 2 2 2 3 3 3 3 4 5 6 11 10 8 2 2 3 3 3 2
3 3 3 3 3 4 4 4 5 5 5 5 7 11 11 8 2 2 2 2 2 2
3 3 3 3 4 5 5 6 5 5 5 4 6 11 11 5 3 2 2 1 1 1
3 3 3 4 5 5 5 5 4 4 3 6 5 11 10 5 2 2 2 2 3 8
3 3 4 4 5 5 5 4 4 4 4 3 4 7 10 8 2 2 3 3 3 3

GFSNIL_con_lsi_063.txt.gz
Lid_Strength_Index
1 1 1 1 1 2 2 1 0 0 0 0 -0 -0 -0 0 1 0 1 1 1 1
1 1 1 1 1 1 1 1 0 0 0 0 0 0 0 1 1 1 1 1 1 1
1 1 1 1 1 1 0 0 0 0 0 0 0 0 0 1 0 1 1 1 1 1
1 1 1 1 1 1 0 0 1 1 1 1 1 0 1 1 1 1 1 1 1 1
1 1 1 1 1 0 1 0 1 1 1 1 1 1 1 1 1 1 2 1 1 1
2 2 1 1 1 1 1 1 1 1 1 1 1 1 1 1 1 1 1 1 1 1
2 2 1 1 1 1 1 1 1 1 1 1 1 1 1 1 1 1 1 0 0 1
2 1 1 1 1 1 1 1 1 1 1 1 1 1 1 1 1 1 1 1 1 0
2 2 1 1 1 1 1 1 1 1 1 1 1 9 7 2 1 1 1 1 1 0
2 2 2 2 2 2 2 2 2 1 1 1 1 11 10 7 1 1 1 1 1 1
3 3 2 2 2 2 2 2 2 2 2 3 7 12 11 8 0 1 1 1 1 1
2 3 3 3 3 2 2 2 2 3 3 3 5 12 10 4 1 1 1 1 0 0
2 3 3 3 2 2 2 4 4 4 3 6 4 12 10 3 1 1 1 1 0 7
2 2 2 2 2 3 4 5 4 4 2 2 3 6 10 8 1 1 2 2 2 1

GFSNIL_con_lsi_069.txt.gz
Lid_Strength_Index
-0 1 1 0 1 1 1 0 -1 0 0 0 0 0 0 0 1 0 1 1 1 1
0 0 1 0 0 1 0 0 -0 -0 0 0 0 0 0 1 1 1 1 1 1 1
0 -0 0 0 1 0 0 0 0 0 0 0 0 0 0 1 1 1 1 1 1 1
0 0 0 0 0 0 0 0 1 0 1 1 1 0 1 1 1 1 1 1 1 1
0 0 0 1 0 0 1 0 1 0 1 1 1 1 1 1 1 1 2 1 1 1
0 0 1 1 0 0 0 0 0 0 1 1 1 1 1 1 1 1 1 1 1 1
1 1 1 1 1 1 0 1 1 1 1 1 1 1 1 1 1 1 1 1 1 1
1 0 0 1 1 1 0 1 0 1 1 1 1 1 1 1 1 1 1 1 1 0
1 1 1 1 1 1 1 1 1 1 1 1 1 7 7 2 1 1 1 2 1 0
1 1 1 1 1 1 1 1 1 1 1 1 1 10 10 8 1 1 1 1 1 1
1 1 1 1 1 1 1 2 2 1 1 1 1 11 10 8 1 1 1 1 1 1
1 1 1 2 2 1 2 2 2 1 1 1 2 13 11 5 1 1 1 1 0 0
1 2 2 2 2 2 2 2 2 2 1 3 1 13 10 5 1 2 2 1 1 8
1 2 1 1 2 2 2 2 2 2 2 1 2 5 11 11 1 1 2 2 2 1

GFSNIL_con_lsi_072.txt.gz
Lid_Strength_Index
1 1 1 1 1 2 2 1 0 1 1 1 0 1 1 1 1 1 1 1 1 2
1 1 1 1 1 1 1 1 1 1 1 1 1 1 1 1 1 1 1 1 1 2
1 1 1 1 1 1 1 1 1 1 1 1 1 1 1 1 1 1 1 1 2 2
1 1 0 1 1 1 1 1 1 1 1 1 1 1 1 1 1 2 2 1 2 2
1 0 1 1 1 1 1 1 1 1 1 1 1 1 1 2 1 2 2 2 2 2
1 1 1 1 1 1 1 1 1 1 1 1 1 1 1 1 2 2 2 2 2 2
1 1 1 1 1 1 1 1 1 1 1 1 1 1 1 1 2 2 1 1 1 1
1 1 1 1 1 1 1 1 1 1 1 1 1 1 1 1 2 2 2 1 1 1
1 1 1 1 1 1 1 1 1 1 1 2 1 5 7 3 2 2 2 2 2 2
1 1 1 1 1 2 2 2 2 2 2 2 1 8 10 8 1 2 2 2 2 2
1 2 1 1 2 2 2 2 2 2 2 2 2 11 11 9 1 2 2 1 1 2
2 2 2 2 2 2 2 2 2 2 2 2 2 13 11 6 2 2 2 1 1 1
1 2 2 2 2 2 2 2 2 2 2 3 2 12 11 5 2 2 2 2 3 8
2 2 2 2 2 2 2 2 2 2 2 2 2 6 12 9 2 2 2 2 2 4

GFSNIL_con_lsi_075.txt.gz
Lid_Strength_Index
2 2 2 2 2 2 2 2 2 1 1 1 0 0 1 1 1 1 1 2 2 2
2 2 2 2 1 1 1 1 1 1 1 1 1 1 1 2 2 1 1 1 1 2
2 1 2 1 2 1 1 1 1 1 1 1 1 1 1 1 1 1 1 1 2 2
2 2 1 2 2 2 1 1 1 1 1 1 1 1 1 1 1 2 2 1 2 2
2 2 2 2 2 1 2 1 1 1 1 1 1 1 1 2 2 2 2 2 2 3
3 2 2 2 2 1 1 1 1 1 1 1 1 1 1 1 2 2 2 2 2 2
3 3 3 2 2 1 1 1 1 1 1 1 1 1 1 1 2 2 2 2 2 2
2 2 2 2 2 1 1 1 1 1 1 1 1 1 1 1 2 2 2 2 2 2
3 2 2 2 2 2 2 1 1 2 2 2 1 4 6 6 2 2 2 2 2 2
2 2 2 2 3 3 3 3 2 2 1 2 1 6 7 7 4 2 2 2 2 3
3 3 3 3 2 3 3 2 2 2 2 2 2 7 8 7 5 2 2 2 2 3
2 3 3 3 3 3 3 2 2 2 2 2 2 7 8 9 5 2 2 2 2 2
2 3 3 3 4 3 3 2 2 2 2 3 2 6 8 9 4 3 2 2 4 8
3 3 3 4 4 4 4 2 2 2 2 2 2 2 8 12 4 2 3 4 5 6

GFSNIL_con_lsi_078.txt.gz
Lid_Strength_Index
2 3 2 2 2 2 2 2 2 1 1 1 1 1 1 1 1 1 1 1 1 2
3 3 3 2 2 2 1 1 1 1 1 1 1 1 1 1 1 1 1 1 1 1
2 2 2 2 2 2 2 1 1 1 1 1 1 1 1 1 1 1 1 1 1 2
3 2 2 2 2 2 2 2 1 1 1 2 2 2 1 1 1 2 2 1 1 2
3 4 3 3 2 2 2 1 1 1 1 1 1 1 1 2 1 2 2 2 2 2
3 3 3 2 3 2 2 2 1 1 1 1 1 1 1 1 1 2 2 2 2 2
4 4 3 3 3 2 2 2 1 1 1 1 1 1 1 1 2 1 1 1 1 2
3 2 3 2 3 2 2 2 1 1 1 1 1 1 1 1 2 2 2 1 1 1
3 3 3 3 3 3 3 2 2 2 2 2 1 3 4 3 2 2 2 2 2 1
3 3 3 3 3 3 4 4 4 3 3 3 2 5 5 5 2 2 2 2 2 2
4 4 4 4 4 5 5 5 5 4 4 3 2 5 5 5 2 2 2 2 2 2
4 4 4 4 4 4 5 4 4 4 5 4 4 5 5 4 2 2 2 1 1 1
4 4 5 5 5 5 4 4 3 4 3 4 3 4 6 6 2 3 2 2 2 9
4 5 4 4 5 5 4 4 4 4 4 3 2 2 5 7 4 2 3 2 2 3

GFSNIL_con_lsi_084.txt.gz
Lid_Strength_Index
2 2 2 2 2 3 3 3 2 2 1 0 1 0 0 0 1 1 1 1 1 2
2 2 2 2 2 2 2 1 1 0 1 1 0 0 1 1 1 1 1 1 1 1
2 2 2 2 2 2 2 1 1 1 1 1 1 0 1 1 1 1 1 1 1 1
2 2 2 2 2 2 2 1 1 1 1 1 1 1 1 1 1 1 1 1 1 1
2 2 2 2 2 1 1 1 1 1 1 1 1 0 1 1 1 1 1 1 1 2
3 3 2 2 2 2 2 2 2 1 1 1 1 1 0 1 1 1 1 1 1 1
4 4 3 3 3 2 2 2 2 1 1 1 1 0 0 1 1 1 1 1 1 1
3 4 3 2 2 1 3 3 2 2 1 1 1 1 1 1 1 1 1 1 1 1
4 3 3 3 3 3 3 3 2 2 1 1 1 4 4 2 1 1 1 2 1 1
3 4 3 3 3 3 4 3 2 2 2 2 2 5 6 5 1 2 2 1 1 1
4 4 3 3 3 3 3 4 3 3 3 3 3 6 7 6 2 2 2 1 1 1
4 4 4 4 4 4 4 4 4 4 4 4 3 6 7 6 3 3 3 2 1 1
4 4 4 4 4 4 4 4 4 4 4 5 4 7 7 6 4 3 2 1 1 3
5 4 4 4 4 4 4 4 5 4 4 4 4 4 7 7 3 3 3 4 3 1

GFSNIL_con_lsi_087.txt.gz
Lid_Strength_Index
1 1 1 1 1 1 1 1 -0 0 -0 -0 -0 -0 -0 0 0 0 1 1 1 1
2 1 1 0 0 1 0 0 -0 -0 -0 -0 -0 -0 -0 1 1 0 0 1 0 1
1 1 0 0 1 0 0 -0 0 0 -0 -0 0 -0 -0 0 0 0 1 1 1 1
1 1 1 1 0 0 0 0 0 0 0 0 0 -0 -0 0 0 1 0 -0 0 1
1 1 1 1 0 0 0 0 0 0 0 0 0 -0 -0 0 -0 0 0 0 0 1
1 1 1 1 1 0 0 0 0 0 0 0 0 0 -0 -0 0 0 -0 -0 0 0
2 1 1 1 0 0 0 1 0 0 0 0 -0 -0 -0 -0 -0 -0 -0 -0 -0 -0
1 1 1 1 1 0 1 0 0 0 0 -0 -0 0 -0 -0 -0 -0 0 -0 -0 -1
1 1 1 1 1 1 1 0 1 0 0 0 0 3 3 1 -0 0 0 0 0 -0
2 2 2 1 1 1 1 1 1 0 0 0 -0 5 5 4 -0 0 0 0 0 0
4 3 2 1 1 1 1 1 1 1 0 0 0 5 6 5 -0 -0 -0 -0 -0 0
3 3 3 2 1 1 1 1 1 1 1 1 0 6 7 4 0 0 0 0 -0 0
3 3 3 2 1 1 1 1 1 1 1 2 0 6 7 5 1 1 1 0 0 4
3 3 3 2 2 2 1 1 1 1 1 0 1 1 8 8 2 2 2 2 1 1

GFSNIL_con_lsi_093.txt.gz
Lid_Strength_Index
0 1 1 1 1 1 1 1 0 1 0 0 0 0 0 1 1 1 1 1 1 1
1 1 1 1 1 1 1 1 1 1 1 1 2 1 1 1 1 1 1 1 1 1
1 1 1 1 1 1 1 1 1 1 1 2 4 3 1 1 1 1 1 1 1 1
1 1 0 1 1 1 1 1 1 1 1 1 3 1 1 1 1 1 1 0 1 1
2 1 1 1 1 1 1 1 1 1 1 1 1 1 1 1 0 1 1 1 1 1
1 1 1 1 0 0 0 0 0 0 1 1 0 1 0 0 0 1 1 0 1 1
2 1 1 1 0 1 0 0 0 0 1 0 0 0 0 0 0 0 0 -0 -0 0
1 1 1 1 1 1 1 1 0 0 0 0 0 1 0 0 0 0 0 -0 -0 -1
1 2 1 1 1 0 0 1 0 1 1 1 1 6 3 1 0 -0 0 0 -0 -1
1 2 2 2 1 1 1 0 0 1 0 1 -0 6 5 3 -0 0 -0 -0 -0 0
1 2 2 2 2 1 1 1 1 1 1 1 1 7 6 4 -0 0 -0 -0 -0 -0
1 1 2 2 2 2 1 1 2 1 1 1 1 8 7 3 0 0 0 0 -0 -0
1 2 1 2 2 2 1 1 1 1 1 2 1 8 8 3 1 1 1 0 -0 4
1 1 1 1 1 1 2 1 1 1 2 1 1 3 8 8 1 1 1 1 1 0

GFSNIL_con_lsi_096.txt.gz
Lid_Strength_Index
1 1 1 1 2 2 2 1 1 1 1 1 1 1 1 1 1 1 1 2 2 2
1 1 2 1 1 1 1 1 1 1 1 1 1 1 1 1 6 5 1 2 2 2
1 1 1 1 1 1 1 1 1 1 3 4 4 2 4 5 6 4 2 1 2 2
1 1 1 1 1 1 1 1 1 2 2 2 3 1 1 3 6 5 3 2 1 2
1 1 2 2 1 1 1 1 1 3 4 3 2 2 1 3 3 3 3 2 2 2
1 1 2 2 1 1 1 1 1 2 3 4 3 3 2 1 2 2 2 2 2 2
2 2 1 1 1 1 2 2 1 1 2 2 1 1 1 1 2 1 1 1 1 2
1 1 1 1 1 1 3 2 2 2 2 2 1 1 2 1 2 2 2 2 2 2
2 1 2 2 1 1 2 2 2 2 2 2 2 6 5 2 2 2 2 2 1 1
1 2 2 2 2 2 2 1 2 2 2 2 2 7 5 3 1 2 2 2 2 1
2 2 2 2 2 2 2 2 2 2 2 2 1 6 6 4 1 1 1 1 1 1
2 2 2 2 2 2 2 2 2 2 2 2 3 8 7 3 2 2 2 1 1 1
3 2 2 2 2 2 2 2 2 2 1 3 1 7 8 3 1 2 2 1 1 4
5 4 2 2 2 2 2 2 2 2 2 2 2 3 8 8 1 2 2 2 2 1

GFSNIL_con_lsi_102.txt.gz
Lid_Strength_Index
4 3 3 2 2 2 2 2 1 1 1 1 1 1 1 1 1 1 1 2 2 2
2 2 4 3 2 3 2 1 1 1 1 1 1 1 1 1 1 1 3 4 3 3
3 3 3 2 2 2 1 1 1 1 1 1 1 1 1 1 3 2 3 3 3 2
3 2 2 2 2 2 2 1 1 1 1 1 1 1 1 1 1 2 2 3 4 3
3 3 3 2 2 2 2 2 2 1 1 1 1 1 2 2 2 2 2 3 4 3
6 5 4 3 3 3 2 2 2 1 2 2 1 1 1 1 2 2 2 3 3 3
8 7 5 4 3 2 2 3 3 2 1 1 1 1 1 1 2 2 2 2 2 3
8 7 7 5 4 3 1 2 2 1 1 1 1 1 2 2 2 2 2 2 2 2
8 8 8 7 6 4 2 2 3 2 2 2 1 5 5 4 2 2 2 2 2 1
8 8 8 8 6 5 3 3 4 3 2 2 2 6 6 5 2 2 2 2 2 2
9 8 8 8 7 6 4 3 4 4 2 2 2 5 6 6 2 3 2 2 3 3
9 10 9 8 7 6 5 4 5 4 3 2 2 7 7 5 2 2 3 2 2 3
9 9 10 9 7 7 7 5 5 4 2 3 2 6 7 6 3 3 2 2 2 5
10 9 8 8 7 5 5 3 5 4 2 2 2 3 8 8 3 3 3 3 3 4

GFSNIL_con_lsi_105.txt.gz
Lid_Strength_Index
5 5 4 4 3 3 3 3 2 2 1 1 1 1 1 1 1 1 1 2 2 2
5 5 3 3 3 3 3 2 2 1 2 2 2 1 1 1 1 1 1 2 2 2
4 3 3 5 4 3 2 2 2 2 2 2 2 2 2 2 1 2 2 1 2 2
6 5 4 4 3 2 3 2 2 2 2 2 2 2 2 2 1 2 2 2 2 2
8 7 7 5 3 3 3 3 3 3 3 2 2 3 3 2 2 2 2 2 2 2
8 8 8 6 6 5 4 3 3 3 3 3 3 3 3 2 2 2 2 2 2 2
9 8 8 8 7 6 5 4 3 3 3 3 3 2 2 2 2 2 2 1 2 2
7 7 8 8 8 8 7 6 5 3 3 3 2 1 1 2 2 2 2 2 1 1
8 9 9 9 9 9 8 7 6 4 3 3 2 4 6 5 3 2 2 2 2 2
11 11 10 9 9 9 8 8 7 5 5 4 3 5 6 6 3 2 2 2 2 2
11 11 11 10 10 9 10 9 8 6 5 4 3 5 7 6 2 2 2 2 2 2
11 11 11 11 11 10 9 8 7 6 6 5 3 6 7 6 2 2 3 2 2 3
11 11 11 11 10 9 8 8 8 8 6 5 4 6 7 7 2 3 4 3 2 6
11 10 9 9 9 8 8 8 7 6 5 5 4 4 7 7 3 3 4 3 3 4

GFSNIL_con_lsi_108.txt.gz
Lid_Strength_Index
4 5 4 4 4 3 2 2 1 1 1 1 1 0 0 1 1 1 1 1 1 1
5 5 5 4 3 3 2 1 1 1 1 1 1 1 1 2 1 1 1 1 1 1
6 5 5 4 4 3 2 2 2 1 1 2 2 2 2 2 2 1 1 1 1 1
7 7 6 6 5 4 3 2 2 2 2 2 2 1 2 2 2 2 1 1 1 2
8 7 7 7 6 5 5 4 3 3 2 1 1 2 3 3 2 2 2 2 2 2
8 8 8 7 6 5 5 5 5 4 3 2 2 2 3 3 3 2 2 2 2 2
8 7 7 7 7 6 6 7 6 5 5 4 3 3 2 2 2 2 2 1 1 1
8 8 8 8 8 7 7 7 7 7 7 6 5 4 3 2 2 2 2 1 1 1
9 9 9 9 9 10 9 9 8 8 8 7 6 6 6 3 2 3 2 2 2 1
10 11 11 10 11 11 10 10 9 8 8 8 6 7 8 7 4 4 3 2 2 2
11 12 11 11 11 11 10 10 10 9 9 8 6 7 8 8 5 4 2 2 2 2
12 12 12 11 11 10 9 9 9 8 7 6 6 7 7 8 5 3 2 1 1 2
11 11 11 11 10 9 9 9 8 8 7 6 6 7 8 8 5 2 2 2 2 6
11 11 10 10 9 9 9 8 8 7 6 6 6 5 8 8 4 2 2 3 3 3

GFSNIL_con_lsi_111.txt.gz
Lid_Strength_Index
-0 1 0 0 1 1 1 0 -1 -0 -0 -0 -1 -1 -1 -0 -0 -0 0 0 0 1
2 1 1 0 -0 0 -0 -0 -0 -0 -0 -0 -0 -0 -1 0 0 -0 -0 0 0 1
3 3 3 3 2 2 1 -0 -0 -0 -0 -0 -0 -0 -0 0 -0 0 0 0 0 0
4 4 4 4 4 3 3 3 3 2 0 0 0 -0 0 0 0 1 1 0 1 1
5 5 5 4 4 4 4 3 3 3 2 2 1 0 0 1 1 1 1 1 1 1
6 6 5 5 5 4 4 4 3 3 3 3 2 2 2 1 1 1 1 1 1 1
6 6 6 5 5 5 5 5 4 4 4 4 4 3 3 3 2 1 1 1 1 1
6 6 6 6 6 6 6 6 6 6 5 5 5 6 6 5 4 2 2 1 1 0
7 7 6 6 6 6 7 7 7 8 7 7 7 8 8 6 6 4 3 2 1 1
7 7 7 8 8 8 9 8 9 8 8 7 7 9 9 8 6 4 3 2 2 2
9 10 10 10 10 10 10 9 9 8 8 8 7 8 8 7 4 4 3 2 2 1
11 11 11 10 10 9 10 10 9 9 8 7 6 7 7 7 5 4 3 1 1 1
12 11 11 10 10 10 9 9 8 8 8 7 6 7 8 7 4 4 3 1 1 5
11 10 10 10 9 8 8 8 8 8 7 7 6 5 7 7 5 4 4 3 2 2

GFSNIL_con_lsi_114.txt.gz
Lid_Strength_Index
-0 0 0 -0 0 0 0 -0 -2 -1 -1 -1 -1 -1 -1 -0 -0 -0 -0 -0 0 0
-0 -0 0 -1 -1 -0 -1 -0 -1 -1 -1 -1 -1 -0 -1 0 0 -0 -0 0 -0 0
1 1 1 1 0 0 -0 -0 -0 -1 -1 -0 -0 -0 -0 0 -0 0 0 0 0 0
2 2 1 1 1 1 1 1 1 1 1 0 -0 -0 0 0 0 1 0 0 1 1
2 2 2 2 2 2 2 2 2 2 2 2 1 -0 0 1 1 1 1 0 1 1
3 3 3 3 2 2 2 2 2 1 2 2 1 1 0 0 0 0 1 1 1 1
4 3 3 2 2 2 2 2 2 2 2 2 2 2 2 2 2 1 1 0 0 1
3 3 3 3 3 3 3 3 3 3 3 3 3 4 3 3 4 4 3 2 2 1
4 4 4 4 4 4 5 5 5 6 6 6 6 8 8 7 6 6 6 5 4 3
5 6 6 6 6 7 7 7 8 8 8 8 7 8 9 8 6 5 5 5 5 4
7 7 8 8 8 8 9 9 9 9 8 8 7 9 9 8 6 5 5 4 3 3
9 9 9 9 9 9 9 9 8 8 8 8 7 8 8 7 5 5 5 3 3 2
8 9 8 8 8 8 8 8 8 8 6 6 6 7 8 7 6 4 4 3 2 3
8 8 8 8 8 7 7 7 6 6 6 5 5 5 8 8 5 5 5 3 2 2

GFSNIL_con_lsi_117.txt.gz
Lid_Strength_Index
-0 0 -0 0 1 1 0 -0 -1 -1 -1 -1 -1 -0 -0 0 0 -0 0 1 1 1
-0 -0 0 -0 -1 0 -1 -0 -1 -1 -1 -1 -0 -0 -0 0 0 0 0 0 0 1
-0 -0 -0 -1 -0 -0 -1 -1 -1 -0 -0 -0 -0 -0 -0 0 0 1 1 1 1 1
1 1 1 0 0 0 -0 -0 0 0 -0 -0 0 -0 0 0 0 1 1 1 1 1
2 1 0 1 0 1 1 1 1 1 2 1 1 -0 0 1 0 1 1 1 1 1
2 2 2 2 2 2 2 2 2 2 1 1 1 0 0 0 0 1 1 1 1 1
3 3 3 2 2 2 1 1 1 1 2 2 2 2 1 1 1 1 1 0 0 1
4 3 2 2 2 2 3 3 3 3 3 3 3 3 2 3 3 3 3 3 3 3
3 3 3 3 4 4 4 4 4 5 5 5 5 7 8 7 6 6 6 6 5 4
3 4 5 5 5 6 5 6 6 7 7 8 7 9 10 9 7 6 6 5 5 5
5 5 5 6 7 7 8 8 8 7 7 6 7 8 9 9 7 7 6 5 5 4
6 6 8 8 8 7 7 7 7 6 7 6 6 7 8 7 6 6 5 4 4 3
8 8 8 7 7 7 6 6 6 5 5 5 5 6 7 7 6 6 6 5 4 4
7 6 6 7 7 5 6 6 6 5 5 5 4 4 6 7 6 6 6 5 4 3

GFSNIL_con_lsi_123.txt.gz
Lid_Strength_Index
5 4 4 4 3 4 4 4 4 4 3 2 2 1 2 2 1 1 2 2 2 2
6 5 5 4 4 4 3 4 4 3 3 3 3 3 3 3 2 1 2 2 2 2
5 5 5 6 6 6 6 5 5 4 4 3 3 2 2 2 1 2 1 1 1 1
5 5 5 5 5 5 5 4 4 3 3 3 3 3 3 3 2 2 2 2 2 2
5 4 4 4 4 4 4 4 3 3 4 4 4 4 4 4 4 4 4 3 3 2
5 5 5 5 4 4 5 5 5 4 5 5 5 6 6 5 5 6 6 6 5 5
5 5 5 5 5 6 6 6 6 6 6 6 6 6 5 5 7 7 7 6 6 5
6 5 6 6 6 6 7 7 7 7 6 6 6 6 7 7 7 8 8 8 8 7
6 6 7 8 8 8 7 7 7 7 7 8 6 7 7 7 8 8 8 8 8 7
6 6 7 7 7 8 8 8 8 8 8 8 8 8 8 7 8 8 8 7 7 7
7 7 7 8 8 8 8 8 9 9 8 8 7 8 8 7 7 7 7 6 6 6
8 8 7 8 8 8 9 9 8 8 8 7 7 7 8 7 6 6 6 5 5 5
7 7 7 7 10 10 9 7 7 7 7 6 5 7 7 7 6 6 6 6 5 5
7 7 8 10 9 7 7 7 8 7 6 5 5 5 7 7 6 6 6 5 5 5